Location: Bazinghen
(50.8246°N, 1.6616°E)
Time: 18:35:45
(UTC+00:00)

STPSAT 2 (USA 217) - Pass Details

Date: 09 April 2020
Orbit: 622 x 646 km, 72.0° (Epoch: 16 May)

Event Time Altitude Azimuth Distance (km) Brightness Sun altitude
Rises 20:26:41 0° 198° (SSW) 2,891 7.8 -16.1°
Reaches altitude 10° 20:28:56 10° 196° (SSW) 1,989 7.0 -16.4°
Maximum altitude 20:33:21 68° 114° (ESE) 678 4.5 -16.9°
Drops below altitude 10° 20:37:50 10° 32° (NNE) 2,011 7.2 -17.5°
Sets 20:40:07 0° 30° (NNE) 2,926 8.1 -17.8°
